Location: Lewisville
(33.0462°N, 96.9942°W)
Time: 10:37:44
(UTC-06:00)

X-37B - Pass Details

Date: 09 December 2021
Orbit: 334 x 337 km, 45.0° (Epoch: 11 January)

Event Time Altitude Azimuth Distance (km) Brightness Sun altitude
Rises 17:55:16 0° 274° (W) 2,097 5.6 -7.3°
Reaches altitude 10° 17:57:45 10° 297° (WNW) 1,263 3.8 -7.8°
Maximum altitude 17:59:38 16° 339° (NNW) 975 2.6 -8.1°
Drops below altitude 10° 18:01:31 10° 21° (NNE) 1,265 2.8 -8.5°
Enters shadow 18:02:07 - 29° (NNE) 1,438 3.0 -8.6°
